Location: Fazenda Monte Alegre
(4.8500°S, 38.0333°W)
Time: 16:29:01
(UTC+00:00)

Helios 1A Rocket - Pass Details

Date: 24 September 2020
Orbit: 563 x 586 km, 98.3° (Epoch: 24 October)

Event Time Altitude Azimuth Distance (km) Brightness Sun altitude
Rises 21:25:07 0° 172° (S) 2,775 6.3 -15.2°
Reaches altitude 10° 21:27:16 10° 174° (S) 1,877 5.5 -15.7°
Maximum altitude 21:31:19 72° 257° (WSW) 607 3.1 -16.7°
Drops below altitude 10° 21:35:22 10° 342° (NNW) 1,879 5.7 -17.7°
Sets 21:37:31 0° 344° (NNW) 2,777 6.6 -18.3°
